Temperature
22 23 23 24 24 24 24 25 25 26 26 26 26 27 27 28 27 27 28 28 28 27 25 23 23 23 23 22 21 21 20 19 19 19 18 18 18 18 17 17 17 17 17 16
22 22 22 22 22 22 23 23 24 25 25 25 26 26 27 28 28 28 28 28 27 26 25 23 22 22 22 22 21 21 20 19 19 18 18 18 18 18 17 17 17 17 17 16
21 22 21 21 21 21 21 22 22 22 24 25 25 25 27 28 28 27 26 26 26 25 24 23 22 22 22 21 21 21 20 20 19 18 18 18 18 18 18 17 17 17 17 16
22 22 21 21 21 21 20 21 21 21 22 23 24 24 26 27 27 28 27 26 24 23 23 22 22 21 21 20 21 20 20 19 19 18 17 17 17 17 17 17 17 17 17 16
23 23 22 22 22 21 20 21 21 20 21 22 24 24 26 27 26 27 27 25 24 23 23 22 21 21 20 20 20 19 19 19 18 17 17 17 17 17 16 16 16 16 16 16
24 24 23 23 23 22 21 20 20 21 22 22 24 24 25 27 26 26 26 24 23 22 22 22 21 21 20 20 20 20 19 19 18 17 17 16 16 16 16 16 16 16 16 16
23 24 24 23 23 23 23 22 21 21 22 23 24 24 25 26 26 25 25 24 23 22 22 22 21 20 20 20 19 19 19 18 18 17 17 16 16 16 15 15 15 15 16 16
22 23 24 24 24 23 23 23 22 21 22 23 23 24 25 26 25 24 24 23 23 22 22 21 21 21 20 19 19 19 18 18 17 17 16 16 16 15 15 15 15 15 15 15
22 23 24 24 24 24 24 23 24 23 23 22 24 24 26 26 26 25 24 23 23 23 22 22 21 21 20 19 19 19 18 17 17 17 16 16 16 15 15 15 15 15 15 15
21 21 23 23 23 23 24 24 23 23 22 22 23 24 24 25 25 25 25 25 24 23 23 23 22 21 20 20 19 19 18 18 17 17 16 16 16 15 15 15 15 15 14 14
20 20 22 23 23 23 22 22 23 23 22 22 22 23 25 24 24 24 25 24 24 23 23 23 22 21 21 20 20 19 19 18 17 17 16 16 16 15 15 15 15 15 14 14
20 19 20 21 22 21 21 22 22 21 21 21 20 22 24 24 24 24 24 23 23 22 22 22 22 21 21 21 20 20 19 18 18 17 16 16 16 16 15 15 15 15 14 14
19 18 18 20 20 20 20 20 20 20 20 20 20 22 24 24 24 23 23 23 23 22 22 22 22 21 21 21 20 20 19 19 18 17 17 16 16 16 16 15 15 15 15 14
18 17 17 16 17 18 19 19 19 19 18 19 20 21 22 22 22 22 21 21 22 22 22 22 21 21 21 21 20 20 19 19 18 17 17 16 16 16 16 15 15 15 15 15
18 17 17 17 18 18 18 19 19 19 19 19 20 20 21 20 20 20 20 20 21 21 21 21 21 21 20 20 20 19 19 19 18 18 17 16 16 16 15 15 15 15 15 14
17 16 17 17 18 18 18 19 19 19 19 19 19 20 20 18 18 19 20 20 20 21 21 21 21 20 20 19 19 19 19 19 18 18 17 16 16 16 16 15 15 15 15 14
16 16 16 17 18 18 18 18 18 18 18 18 17 17 17 18 18 19 19 19 20 20 20 19 19 19 19 19 18 18 18 18 18 17 17 16 16 16 16 15 15 15 15 14
15 16 16 16 17 16 16 17 17 17 17 17 17 17 17 17 18 19 17 17 18 18 18 18 18 18 18 18 18 18 18 18 17 17 16 16 16 16 16 15 15 15 14 14
15 15 15 15 16 17 15 14 14 16 16 16 16 16 16 16 21 21 17 15 15 16 16 17 17 18 18 18 18 18 17 17 16 16 15 15 15 15 15 15 15 15 14 14
15 14 13 13 13 13 10 11 13 16 15 14 15 15 15 16 19 19 16 15 15 15 16 17 17 17 18 17 17 16 16 15 15 14 14 14 14 14 14 14 14 14 14 14
15 14 13 11 11 10 8 9 13 13 11 12 13 14 14 15 15 15 15 15 14 15 15 15 16 17 16 15 15 15 14 13 13 13 13 13 13 13 13 14 14 14 14 14
13 13 12 11 10 9 8 9 9 9 10 11 13 13 13 13 14 14 15 14 14 15 15 15 15 15 14 14 14 13 13 12 12 12 12 12 12 12 12 13 13 13 13 13
13 12 12 11 11 10 9 8 9 9 10 11 12 12 13 13 14 14 15 15 15 15 15 14 14 14 13 13 13 13 12 12 12 11 11 11 11 12 12 12 12 12 12 12
13 13 12 12 12 11 10 9 9 9 9 10 11 12 13 13 13 14 15 15 15 15 15 14 14 14 13 13 13 13 12 12 11 11 11 11 11 11 11 11 11 11 11 11
11 11 11 11 12 11 10 10 9 9 9 10 10 11 12 13 13 14 15 15 15 15 15 14 14 14 13 13 13 13 13 12 11 11 11 11 11 11 11 11 11 11 11 11
10 9 9 9 10 9 9 9 9 8 9 9 10 11 12 13 13 14 14 15 15 15 15 15 14 14 14 13 13 13 13 12 11 11 11 11 11 11 11 11 11 11 11 11
Wind_Speed
1 3 3 2 3 6 7 8 10 8 4 7 11 12 11 11 10 12 13 14 15 13 9 7 6 6 6 6 7 8 9 11 10 10 10 9 8 9 8 8 11 12 13 13
2 4 3 4 3 4 6 9 10 8 5 8 12 15 14 14 14 13 12 12 13 12 10 8 7 5 4 3 2 4 6 8 10 9 9 7 7 8 8 8 9 12 14 14
4 2 2 4 4 6 8 8 9 10 11 9 11 17 14 12 12 11 11 10 9 10 11 10 8 6 4 3 3 3 4 7 9 9 7 5 5 4 6 8 9 11 13 14
4 3 5 6 7 8 10 7 7 9 10 9 7 13 13 13 14 13 12 10 9 9 11 10 9 7 5 4 4 4 5 6 8 9 9 9 7 7 8 7 8 10 12 13
3 3 5 7 7 6 5 3 5 7 9 12 12 12 11 9 11 8 6 6 8 10 12 11 9 7 5 5 5 5 6 6 7 7 7 7 6 5 5 5 7 8 9 11
6 5 6 6 5 6 5 3 6 8 8 11 10 10 8 4 5 7 6 2 7 11 12 11 9 7 6 6 5 5 6 6 6 6 6 6 5 5 6 6 6 6 6 7
6 6 5 6 6 8 8 7 4 5 6 6 2 6 6 5 6 8 8 2 8 12 12 11 10 9 8 7 7 6 6 6 6 6 6 6 5 6 7 7 7 6 6 6
7 5 3 4 5 5 8 11 8 5 5 3 4 5 4 5 6 6 4 3 8 11 11 10 10 9 9 9 8 8 8 7 7 6 5 5 5 5 5 6 5 6 5 6
7 6 2 4 7 8 6 9 8 11 12 9 7 5 7 4 2 3 2 3 8 10 10 10 10 10 10 10 10 10 9 8 7 7 6 5 5 5 5 5 5 5 5 4
6 10 9 5 5 7 7 5 5 7 7 10 8 8 5 2 5 5 3 1 3 6 8 10 10 10 11 11 11 11 10 9 8 7 6 5 5 5 5 4 5 5 5 6
7 8 9 7 6 6 5 6 7 7 6 7 6 2 2 4 6 7 7 6 4 4 6 8 9 10 11 11 11 12 11 10 9 9 8 7 6 6 6 5 5 5 6 7
5 6 9 9 4 3 5 5 7 8 8 6 6 4 4 4 6 9 11 10 8 7 6 6 7 9 11 12 12 13 12 12 10 9 9 8 6 6 7 7 6 6 7 7
7 6 8 6 3 0 1 2 5 7 6 7 7 5 3 6 11 14 15 15 12 10 9 8 7 8 10 12 13 13 13 12 11 10 9 9 8 7 7 7 7 7 8 8
5 6 7 7 9 8 9 8 8 8 6 7 7 9 11 14 17 18 19 18 16 14 12 10 8 7 8 11 12 12 12 11 10 10 10 9 8 8 8 8 8 8 9 9
7 8 9 11 12 12 13 12 11 12 11 8 8 10 12 16 19 20 20 18 16 14 12 10 9 6 6 9 10 10 10 10 10 10 9 9 8 8 8 8 8 9 9 9
7 9 13 14 11 12 14 11 9 8 6 5 8 8 15 20 18 17 16 13 12 11 9 7 6 3 4 7 8 8 8 8 8 8 8 7 7 7 7 8 9 9 9 9
9 11 13 13 12 13 5 6 6 11 12 9 9 13 20 22 20 16 15 12 9 8 6 3 2 2 4 5 6 6 6 6 6 6 6 6 7 8 8 8 8 9 9 10
9 11 8 9 9 4 6 12 8 9 15 16 14 16 18 21 16 9 15 15 11 8 6 6 7 8 8 7 7 6 4 3 2 3 4 5 6 7 8 8 9 9 9 9
6 6 5 5 6 4 7 13 15 6 7 20 21 21 23 25 7 11 21 18 12 9 8 9 9 10 10 10 9 8 7 5 3 2 1 2 4 6 8 9 9 9 9 9
3 3 4 4 5 1 10 24 22 7 1 21 23 23 24 23 13 13 21 16 10 8 8 8 9 10 11 10 9 9 9 8 7 5 3 2 2 4 6 8 8 8 9 9
11 7 6 6 4 4 14 25 15 4 10 21 21 21 21 17 13 17 18 9 5 6 6 6 8 9 9 9 9 10 10 9 8 6 5 4 2 1 3 5 6 7 8 9
9 8 7 6 5 5 14 15 10 11 16 19 21 21 20 20 19 17 12 4 2 3 4 5 6 8 7 7 8 9 9 7 6 7 7 7 6 4 2 1 3 5 7 8
7 7 5 4 3 4 8 9 10 14 18 19 21 22 21 21 19 17 11 4 1 1 3 3 5 6 6 6 6 7 6 5 6 6 7 7 6 6 4 2 2 3 4 6
6 7 6 6 4 9 10 7 13 17 18 21 21 21 20 19 20 17 11 6 4 3 3 3 3 3 3 3 3 4 3 4 5 6 6 6 6 6 6 4 2 2 3 4
6 6 7 8 10 12 8 15 18 19 19 20 21 20 18 18 18 16 12 7 6 5 4 4 4 2 1 2 3 3 3 3 4 5 5 5 6 6 6 6 6 4 4 3
2 4 6 7 12 13 17 18 18 19 20 20 21 21 19 17 17 16 12 7 6 7 6 6 5 4 2 2 3 3 2 2 3 4 4 4 4 4 4 5 6 12 10 10
Wind_Direction
355 252 244 296 290 292 296 272 261 261 289 281 268 270 271 274 261 258 254 243 232 227 217 203 205 212 221 226 231 227 223 214 200 189 191 197 204 212 211 208 204 200 205 208
247 264 314 311 310 297 282 276 273 275 290 290 281 277 275 271 267 262 262 251 234 221 204 195 188 179 178 174 194 205 202 197 192 192 194 203 203 213 211 208 208 203 202 204
244 253 309 295 270 263 263 266 279 292 302 281 288 278 267 266 261 256 253 253 243 218 207 189 178 166 156 145 143 159 173 179 187 184 181 180 184 193 198 206 207 206 204 204
265 229 221 242 252 255 265 270 276 286 290 282 282 286 280 276 273 264 257 243 230 207 195 180 173 164 153 133 132 144 156 168 177 181 190 196 207 214 218 215 208 206 207 206
272 253 247 249 246 225 251 299 273 269 275 279 266 273 280 274 273 279 284 248 218 194 183 174 169 160 147 134 135 139 147 158 170 187 193 206 218 224 215 212 213 210 206 209
275 260 255 251 223 201 187 212 253 246 252 260 258 259 281 280 307 318 320 261 193 180 175 170 164 164 155 145 143 146 150 151 163 180 192 205 203 205 205 210 212 209 203 205
279 243 220 233 229 204 215 236 250 236 227 250 230 256 273 320 325 314 312 264 175 174 174 175 176 179 177 171 165 162 160 161 170 184 195 198 199 212 216 216 215 214 207 206
281 266 196 209 243 240 225 238 244 262 260 253 216 250 269 319 316 314 307 191 174 179 184 188 191 190 189 185 180 177 175 173 176 188 195 201 195 213 226 223 223 221 217 211
291 278 254 257 275 268 243 230 253 262 268 271 259 255 277 283 348 16 59 154 185 195 200 203 203 200 198 195 191 188 184 182 184 190 191 201 203 213 223 220 217 220 216 197
302 290 286 295 263 229 266 274 233 240 255 255 249 247 250 326 27 34 41 89 205 218 220 217 214 210 206 201 195 191 190 187 188 191 191 191 205 206 215 213 207 209 200 185
296 283 282 277 272 276 240 232 241 248 258 264 260 212 69 35 24 20 14 2 325 279 256 237 226 219 210 202 195 191 191 192 190 191 190 194 197 199 200 206 202 201 196 190
311 288 279 279 303 311 290 285 261 254 248 250 267 262 62 21 1 355 345 339 325 307 290 266 247 230 215 207 199 195 194 193 192 192 193 198 195 196 205 205 202 201 198 200
321 293 293 270 190 86 332 339 300 287 268 249 250 260 60 335 324 326 325 319 310 299 288 278 259 239 225 213 204 199 197 195 190 190 194 196 199 204 210 210 205 206 205 203
323 291 285 289 316 321 307 302 296 281 271 267 263 292 315 323 323 319 313 305 299 292 286 281 271 254 232 218 206 199 193 190 189 193 198 202 206 207 212 213 211 212 210 210
340 303 308 307 307 305 299 294 286 276 276 282 305 311 326 334 322 312 305 298 291 285 282 279 276 266 231 212 199 191 186 185 189 197 205 209 210 207 212 214 214 215 216 218
321 298 303 300 301 302 296 295 279 269 284 304 324 329 343 327 322 319 317 309 294 289 290 288 282 263 215 195 184 177 181 186 194 203 210 209 214 208 210 214 217 214 213 218
295 290 296 294 303 297 281 24 54 81 57 31 9 343 334 333 333 339 346 341 325 319 327 341 25 93 130 144 155 163 172 177 197 207 210 211 214 211 211 212 211 209 212 216
277 287 280 281 289 251 86 50 34 102 61 30 9 353 344 333 320 23 16 1 357 4 29 59 79 87 90 96 105 112 120 144 187 215 222 219 220 217 212 210 208 209 212 208
248 282 281 273 265 240 73 12 343 289 62 19 2 355 351 343 347 37 18 8 10 28 54 69 78 84 82 81 87 91 89 85 77 50 315 246 228 223 217 213 210 208 208 207
349 281 300 316 285 56 13 340 326 260 97 5 355 353 351 353 3 353 348 353 16 43 60 73 80 81 79 78 84 86 80 71 57 39 21 356 261 235 227 223 218 210 210 212
353 354 3 356 314 61 3 343 351 54 352 335 340 344 345 345 330 317 326 345 22 44 54 69 79 79 79 83 85 81 72 60 47 38 36 33 15 292 247 228 218 211 210 211
356 359 8 358 349 348 348 353 2 334 324 327 331 335 335 331 328 331 334 337 25 59 62 72 86 85 81 80 81 77 68 57 46 40 37 32 27 22 25 214 204 204 202 202
10 5 344 333 311 286 305 300 303 320 322 323 325 326 328 328 330 331 327 298 219 126 95 97 106 102 91 74 64 67 62 42 35 34 33 30 34 38 40 56 133 174 190 192
353 353 331 318 302 323 320 321 322 322 317 315 316 318 322 323 325 327 320 282 228 190 153 147 147 128 99 68 42 35 28 14 18 25 27 32 34 46 52 52 69 132 167 183
333 337 328 311 324 327 318 322 322 319 316 314 313 313 315 318 321 323 316 282 235 202 183 184 188 176 100 4 353 358 353 348 5 19 30 43 50 55 61 59 41 41 60 45
360 325 316 305 316 313 308 315 318 317 316 316 314 312 314 315 317 321 317 289 233 208 191 193 204 220 258 320 344 2 9 349 2 23 32 40 56 68 80 91 79 50 56 61
Height
1507 1505 1504 1502 1502 1502 1500 1498 1497 1493 1492 1493 1491 1488 1486 1485 1487 1487 1486 1486 1487 1489 1492 1493 1494 1496 1498 1499 1501 1502 1503 1505 1506 1507 1509 1512 1514 1517 1519 1521 1523 1525 1527 1531
1506 1507 1505 1505 1505 1505 1504 1504 1499 1494 1493 1493 1489 1486 1482 1481 1481 1481 1481 1481 1482 1485 1488 1490 1491 1493 1495 1496 1498 1499 1499 1500 1501 1502 1505 1508 1511 1513 1515 1516 1519 1521 1523 1525
1507 1506 1506 1507 1506 1508 1508 1508 1506 1504 1497 1492 1492 1487 1478 1475 1476 1476 1478 1479 1480 1482 1485 1488 1490 1492 1493 1494 1495 1496 1497 1497 1498 1499 1501 1504 1506 1509 1510 1512 1514 1516 1518 1521
1503 1502 1505 1507 1507 1508 1511 1505 1506 1507 1506 1498 1495 1496 1478 1472 1470 1470 1472 1474 1476 1479 1482 1485 1488 1491 1492 1493 1493 1494 1494 1495 1496 1497 1499 1501 1503 1505 1507 1508 1509 1511 1514 1516
1501 1500 1501 1503 1502 1504 1507 1505 1506 1507 1507 1503 1493 1495 1478 1468 1470 1467 1468 1470 1473 1476 1479 1483 1486 1489 1491 1491 1492 1493 1493 1494 1495 1496 1497 1499 1501 1503 1503 1504 1505 1507 1508 1511
1497 1497 1497 1496 1496 1498 1501 1505 1506 1504 1502 1505 1489 1490 1481 1466 1467 1466 1467 1468 1470 1474 1478 1482 1485 1487 1489 1490 1491 1492 1492 1493 1494 1494 1496 1498 1499 1500 1500 1501 1502 1503 1504 1506
1495 1492 1493 1494 1494 1495 1497 1502 1509 1508 1504 1497 1484 1487 1479 1465 1465 1467 1467 1467 1469 1473 1477 1480 1483 1486 1487 1488 1490 1491 1491 1492 1493 1494 1495 1497 1497 1498 1499 1499 1499 1500 1501 1502
1500 1495 1489 1490 1490 1490 1490 1493 1503 1507 1502 1492 1486 1485 1471 1464 1466 1467 1466 1467 1470 1473 1476 1479 1482 1484 1486 1487 1488 1489 1490 1491 1491 1492 1494 1495 1495 1495 1496 1497 1497 1498 1498 1499
1497 1495 1487 1488 1488 1487 1485 1485 1481 1488 1487 1494 1484 1475 1468 1463 1464 1465 1466 1468 1470 1473 1476 1478 1481 1482 1484 1485 1486 1487 1488 1489 1490 1491 1492 1493 1493 1494 1494 1495 1495 1495 1496 1497
1501 1500 1489 1487 1486 1486 1483 1479 1483 1487 1495 1495 1484 1479 1474 1466 1466 1465 1466 1468 1470 1473 1474 1476 1478 1480 1481 1483 1484 1485 1486 1487 1488 1489 1490 1490 1491 1492 1492 1493 1493 1494 1495 1495
1505 1504 1494 1487 1485 1483 1484 1485 1483 1481 1483 1491 1492 1482 1466 1468 1468 1468 1468 1469 1471 1472 1473 1474 1476 1477 1478 1479 1480 1482 1483 1485 1486 1487 1488 1488 1490 1490 1491 1492 1492 1493 1494 1495
1504 1506 1500 1489 1486 1488 1486 1484 1484 1491 1490 1488 1493 1485 1466 1468 1469 1470 1470 1470 1470 1470 1470 1471 1472 1473 1474 1475 1477 1479 1480 1482 1483 1484 1485 1487 1488 1488 1489 1490 1491 1492 1493 1494
1508 1509 1507 1496 1495 1491 1489 1489 1488 1486 1487 1489 1495 1485 1467 1468 1469 1469 1470 1468 1468 1467 1467 1467 1467 1468 1469 1471 1473 1475 1477 1479 1481 1482 1483 1484 1485 1486 1487 1488 1489 1491 1492 1493
1510 1508 1512 1512 1505 1499 1494 1491 1488 1489 1493 1489 1485 1479 1472 1471 1471 1470 1469 1466 1464 1463 1463 1463 1463 1463 1463 1466 1468 1472 1474 1476 1478 1479 1480 1481 1482 1483 1484 1486 1487 1488 1490 1492
1509 1507 1505 1502 1498 1495 1492 1490 1487 1487 1486 1488 1483 1480 1476 1477 1476 1471 1467 1463 1460 1459 1459 1459 1459 1459 1459 1461 1464 1468 1471 1473 1475 1476 1478 1479 1480 1480 1481 1483 1484 1486 1487 1489
1509 1508 1504 1499 1494 1493 1490 1484 1482 1482 1482 1484 1483 1480 1480 1480 1475 1468 1462 1458 1457 1456 1456 1455 1456 1456 1457 1459 1461 1465 1468 1470 1472 1474 1475 1476 1476 1477 1478 1479 1481 1482 1483 1485
1509 1507 1505 1500 1492 1489 1488 1487 1485 1487 1490 1489 1491 1491 1484 1477 1472 1466 1461 1458 1455 1455 1454 1454 1454 1455 1456 1459 1461 1464 1466 1468 1469 1471 1471 1472 1473 1473 1475 1476 1477 1478 1480 1482
1512 1506 1503 1499 1496 1498 1496 1492 1491 1490 1493 1495 1494 1491 1487 1480 1471 1468 1464 1460 1457 1455 1455 1454 1455 1456 1458 1459 1461 1463 1465 1466 1467 1467 1468 1468 1468 1469 1471 1472 1473 1475 1477 1478
1512 1509 1505 1501 1497 1491 1496 1501 1502 1496 1495 1498 1495 1490 1484 1476 1464 1463 1464 1463 1460 1458 1457 1457 1458 1459 1460 1461 1462 1463 1464 1464 1464 1464 1464 1464 1464 1465 1466 1468 1469 1471 1473 1475
1510 1510 1510 1510 1508 1505 1518 1511 1500 1494 1496 1501 1498 1493 1488 1481 1471 1470 1469 1467 1465 1463 1462 1461 1462 1462 1462 1462 1463 1463 1463 1463 1462 1462 1461 1461 1461 1461 1462 1463 1464 1466 1468 1470
1512 1511 1514 1518 1518 1515 1527 1517 1502 1507 1515 1509 1503 1499 1494 1490 1488 1482 1474 1471 1469 1467 1466 1466 1465 1464 1464 1464 1464 1464 1463 1462 1462 1461 1460 1459 1458 1458 1458 1458 1459 1461 1462 1464
1522 1521 1521 1524 1525 1529 1527 1523 1522 1523 1517 1511 1506 1501 1496 1491 1484 1479 1475 1473 1471 1470 1469 1468 1468 1466 1466 1466 1466 1465 1464 1463 1462 1461 1459 1458 1457 1456 1455 1455 1456 1457 1458 1460
1526 1528 1527 1528 1530 1529 1527 1526 1524 1521 1516 1511 1506 1500 1495 1489 1484 1479 1475 1473 1472 1471 1470 1470 1470 1469 1468 1468 1468 1467 1465 1464 1463 1462 1460 1459 1457 1456 1454 1454 1454 1455 1456 1457
1528 1529 1527 1525 1523 1524 1524 1522 1521 1518 1513 1508 1504 1499 1494 1489 1483 1478 1475 1473 1472 1471 1470 1470 1471 1471 1471 1470 1468 1468 1466 1465 1464 1463 1461 1460 1458 1457 1455 1454 1454 1455 1455 1457
1534 1532 1530 1526 1523 1522 1520 1520 1516 1512 1508 1504 1499 1496 1492 1487 1482 1477 1474 1472 1471 1471 1470 1470 1471 1472 1472 1471 1469 1468 1466 1465 1465 1464 1463 1461 1460 1458 1457 1456 1456 1456 1457 1458
1535 1536 1534 1529 1526 1524 1519 1516 1512 1508 1503 1499 1495 1489 1487 1484 1480 1476 1472 1470 1470 1470 1470 1470 1471 1472 1472 1471 1470 1468 1466 1466 1466 1465 1464 1463 1462 1461 1460 1459 1459 1459 1459 1459